GW5842 Weather Reports


time (UTC)temp
F
wind
direction
speed
knots
gust
knots
rain 1hr
in
rain 24hr
in
rain mn
in
humidity
%
barometer
mb
20260507213727 75 166 0.0 0.9 0.19 1.66 1.66 97 1018.3
20260507213225 75 176 0.9 0.9 0.05 1.64 1.64 97 1018.5
20260507212720 74 161 0.0 0.0 0.00 1.63 1.63 97 1018.5
20260507212217 74 135 0.0 0.0 0.00 1.63 1.63 97 1018.2
20260507211714 73 141 0.0 0.9 0.00 1.63 1.63 97 1018.1
20260507211210 73 147 0.0 0.9 0.00 1.63 1.63 97 1018.2
20260507210707 73 150 0.0 0.9 0.07 1.63 1.63 97 1018.3
20260507210204 73 110 0.0 0.9 0.12 1.63 1.63 97 1018.4
20260507205700 72 127 0.0 0.9 0.17 1.62 1.62 96 1018.5
20260507205157 72 136 0.0 2.6 0.24 1.61 1.61 96 1018.5
20260507204653 71 145 0.0 0.9 0.50 1.59 1.59 96 1018.4
20260507204151 71 89 0.0 1.7 1.02 1.57 1.57 96 1018.3
20260507203649 72 132 0.0 1.7 2.22 1.51 1.51 96 1018.7
20260507203146 72 116 0.0 0.9 3.66 1.39 1.39 95 1018.6
20260507202642 72 79 0.0 0.9 4.56 1.09 1.09 95 1018.8
20260507202138 73 68 0.9 2.6 4.13 0.75 0.75 94 1018.8
20260507201633 76 123 0.9 1.7 1.61 0.30 0.30 95 1018.5
20260507201131 76 42 0.9 1.7 0.05 0.04 0.04 94 1018.6
20260507200626 76 139 0.0 0.0 0.00 0.03 0.03 95 1018.4
20260507200123 77 10 0.9 0.9 0.00 0.03 0.03 95 1018.3
20260507195620 77 125 0.0 0.9 0.00 0.03 0.03 95 1018.5
20260507195117 77 180 0.9 1.7 0.00 0.03 0.03 95 1018.7
20260507194614 77 150 0.0 1.7 0.00 0.03 0.03 95 1018.3
20260507194109 76 145 0.0 0.9 0.00 0.03 0.03 95 1018.6
20260507193606 76 137 0.0 0.0 0.00 0.03 0.03 95 1018.4
20260507193103 77 135 0.0 0.0 0.00 0.03 0.03 95 1018.7
20260507192559 76 156 0.0 0.9 0.00 0.03 0.03 95 1018.6
20260507192057 77 273 0.9 1.7 0.00 0.03 0.03 95 1018.7
20260507191552 77 150 0.0 0.0 0.00 0.03 0.03 94 1018.8
20260507191049 77 148 0.0 0.0 0.00 0.03 0.03 94 1018.8
20260507190546 77 148 0.0 0.9 0.00 0.03 0.03 94 1018.7
20260507190045 77 155 0.0 0.0 0.00 0.03 0.03 93 1018.7
20260507185543 77 86 0.9 1.7 0.00 0.03 0.03 93 1018.9
20260507185039 77 259 0.9 2.6 0.07 0.03 0.03 92 1018.8
20260507184538 78 130 0.0 0.9 0.19 0.03 0.03 91 1018.6
20260507184035 79 126 0.9 0.9 0.12 0.02 0.02 89 1018.8
20260507183531 81 122 1.7 2.6 0.00 0.00 0.00 86 1018.9
20260507183028 82 129 0.0 0.9 0.00 0.00 0.00 83 1018.9
20260507182524 81 187 0.9 1.7 0.00 0.00 0.00 82 1018.6
20260507182020 82 212 2.6 6.1 0.00 0.00 0.00 82 1019.0
20260507181517 82 215 0.9 2.6 0.00 0.00 0.00 82 1018.7
20260507181014 82 253 2.6 4.3 0.00 0.00 0.00 81 1018.6
20260507180510 82 189 1.7 2.6 0.00 0.00 0.00 81 1018.6
20260507180007 82 248 3.5 4.3 0.00 0.00 0.00 81 1018.9
20260507175503 83 199 1.7 2.6 0.00 0.00 0.00 81 1018.7
20260507175001 83 256 7.0 9.6 0.00 0.00 0.00 79 1018.9
20260507174458 83 204 1.7 4.3 0.00 0.00 0.00 78 1018.8
20260507173955 84 227 0.9 6.1 0.00 0.00 0.00 80 1018.8
20260507173452 84 202 3.5 6.1 0.00 0.00 0.00 77 1019.0
20260507172949 86 199 1.7 5.2 0.00 0.00 0.00 75 1019.1
20260507172445 83 155 0.9 2.6 0.00 0.00 0.00 75 1019.0
20260507171942 81 144 0.9 1.7 0.00 0.00 0.00 77 1019.3
20260507171438 84 200 1.7 2.6 0.00 0.00 0.00 76 1019.1
20260507170935 85 213 0.9 2.6 0.00 0.00 0.00 76 1019.6
20260507170432 86 215 1.7 6.1 0.00 0.00 0.00 74 1019.6
20260507165928 86 133 0.9 2.6 0.00 0.00 0.00 73 1019.5
20260507165424 86 215 1.7 5.2 0.00 0.00 0.00 73 1019.8
20260507164920 86 155 1.7 1.7 0.00 0.00 0.00 71 1019.7
20260507164417 84 336 1.7 1.7 0.00 0.00 0.00 74 1019.7
20260507163914 86 171 1.7 5.2 0.00 0.00 0.00 72 1019.9
20260507163412 86 244 1.7 4.3 0.00 0.00 0.00 73 1019.8
20260507162908 86 178 0.9 4.3 0.00 0.00 0.00 74 1019.8
20260507162403 86 235 2.6 2.6 0.00 0.00 0.00 73 1020.1
20260507161901 87 286 0.9 6.1 0.00 0.00 0.00 73 1019.8
20260507161357 85 158 1.7 1.7 0.00 0.00 0.00 73 1020.1
20260507160854 87 165 2.6 4.3 0.00 0.00 0.00 73 1020.1
20260507160349 88 245 4.3 7.0 0.00 0.00 0.00 72 1020.0
20260507155846 87 145 1.7 5.2 0.00 0.00 0.00 71 1020.1
20260507155342 86 186 2.6 6.1 0.00 0.00 0.00 75 1020.1
20260507154839 87 197 6.1 7.8 0.00 0.00 0.00 72 1020.4
20260507154336 85 169 2.6 6.1 0.00 0.00 0.00 75 1020.2
20260507153833 84 220 2.6 6.1 0.00 0.00 0.00 74 1020.3
20260507153330 84 245 1.7 5.2 0.00 0.00 0.00 78 1020.4
20260507152826 86 202 5.2 6.1 0.00 0.00 0.00 72 1020.5
20260507152323 85 232 3.5 5.2 0.00 0.00 0.00 74 1020.2
20260507151819 86 235 4.3 5.2 0.00 0.00 0.00 71 1020.4
20260507151315 85 164 0.9 4.3 0.00 0.00 0.00 75 1020.6
20260507150812 84 211 0.9 1.7 0.00 0.00 0.00 74 1020.5
20260507150309 84 200 3.5 6.1 0.00 0.00 0.00 76 1020.6
20260507145805 83 217 0.0 1.7 0.00 0.00 0.00 76 1020.8
20260507145301 83 278 1.7 4.3 0.00 0.00 0.00 77 1020.7
20260507144759 85 242 4.3 5.2 0.00 0.00 0.00 72 1020.9
20260507144256 85 196 0.9 1.7 0.00 0.00 0.00 67 1020.7
20260507143752 85 180 0.0 1.7 0.00 0.00 0.00 70 1020.7
20260507143250 85 125 0.9 2.6 0.00 0.00 0.00 70 1020.6
20260507142745 83 221 3.5 4.3 0.00 0.00 0.00 72 1020.7
20260507142242 83 172 2.6 4.3 0.00 0.00 0.00 73 1020.7
20260507141739 86 233 2.6 2.6 0.00 0.00 0.00 72 1020.7
20260507141236 83 192 1.7 2.6 0.00 0.00 0.00 71 1021.0
20260507140732 84 205 2.6 2.6 0.00 0.00 0.00 70 1021.0
20260507140230 82 120 0.0 0.9 0.00 0.00 0.00 71 1020.9
20260507135726 83 168 0.9 1.7 0.00 0.00 0.00 71 1020.9
20260507135224 83 119 2.6 4.3 0.00 0.00 0.00 73 1020.9
20260507134719 83 235 1.7 4.3 0.00 0.00 0.00 76 1021.0
20260507134216 83 217 0.9 4.3 0.00 0.00 0.00 74 1020.8
20260507133712 80 199 0.0 1.7 0.00 0.00 0.00 76 1020.9
20260507133209 79 168 0.0 0.9 0.00 0.00 0.00 78 1020.9
20260507132707 80 182 0.0 1.7 0.00 0.00 0.00 79 1020.8
20260507132203 83 216 0.9 1.7 0.00 0.00 0.00 77 1020.7
20260507131700 82 166 0.0 0.0 0.00 0.00 0.00 75 1020.8
20260507131158 80 142 1.7 2.6 0.00 0.00 0.00 76 1020.8
20260507130654 84 208 0.0 0.9 0.00 0.00 0.00 76 1020.9
20260507130152 80 154 0.0 0.9 0.00 0.00 0.00 75 1020.9
20260507125650 81 65 0.9 1.7 0.00 0.00 0.00 77 1020.8
20260507125148 80 58 0.9 1.7 0.00 0.00 0.00 79 1020.8
20260507124643 80 111 0.0 1.7 0.00 0.00 0.00 76 1020.7
20260507124141 81 154 0.0 1.7 0.00 0.00 0.00 77 1020.6
20260507123639 79 182 0.0 0.0 0.00 0.00 0.00 75 1020.8
20260507123136 80 136 0.0 0.0 0.00 0.00 0.00 76 1020.6
20260507122631 77 167 0.0 0.0 0.00 0.00 0.00 80 1020.5
20260507122127 80 161 0.0 0.0 0.00 0.00 0.00 79 1020.4
20260507121624 78 144 0.0 0.0 0.00 0.00 0.00 81 1020.5
20260507121120 75 146 0.0 0.0 0.00 0.00 0.00 84 1020.2
20260507120616 78 165 0.0 0.0 0.00 0.00 0.00 82 1020.3
20260507120113 79 164 0.0 0.0 0.00 0.00 0.00 83 1020.1
20260507115609 79 159 0.0 0.0 0.00 0.00 0.00 84 1019.9
20260507115105 77 155 0.0 0.0 0.00 0.00 0.00 86 1019.9
20260507114601 76 162 0.0 0.0 0.00 0.00 0.00 86 1020.2
20260507114058 75 172 0.0 0.0 0.00 0.00 0.00 87 1020.4
20260507113555 72 151 0.0 0.0 0.00 0.00 0.00 92 1020.1
20260507113052 72 163 0.0 0.0 0.00 0.00 0.00 94 1020.2
20260507112550 71 152 0.0 0.0 0.00 0.00 0.00 96 1020.1
20260507112047 72 159 0.0 0.0 0.00 0.00 0.00 96 1020.1
20260507111544 71 165 0.0 0.0 0.00 0.00 0.00 97 1020.0
20260507111041 70 155 0.0 0.0 0.00 0.00 0.00 97 1020.1
20260507110537 70 166 0.0 0.0 0.00 0.00 0.00 97 1020.2
20260507110033 69 164 0.0 0.0 0.00 0.00 0.00 97 1020.2
20260507105530 69 153 0.0 0.0 0.00 0.00 0.00 97 1020.0
20260507105026 68 157 0.0 0.0 0.00 0.00 0.00 97 1020.0
20260507104524 68 158 0.0 0.0 0.00 0.00 0.00 97 1020.0
20260507104020 68 147 0.0 0.0 0.00 0.00 0.00 97 1019.8
20260507103516 68 153 0.0 0.0 0.00 0.00 0.00 97 1020.1
20260507103013 69 156 0.0 0.0 0.00 0.00 0.00 97 1019.7
20260507102510 68 157 0.0 0.0 0.00 0.00 0.00 97 1019.8
20260507102007 68 146 0.0 0.0 0.00 0.00 0.00 97 1019.6
20260507101501 68 148 0.0 0.0 0.00 0.00 0.00 97 1019.6
20260507100958 68 150 0.0 0.0 0.00 0.00 0.00 97 1019.6
20260507100455 68 150 0.0 0.0 0.00 0.00 0.00 97 1019.7
20260507095953 68 149 0.0 0.0 0.00 0.00 0.00 97 1019.4
20260507095451 68 148 0.0 0.0 0.00 0.00 0.00 97 1019.5
20260507094947 69 149 0.0 0.0 0.00 0.00 0.00 97 1019.6
20260507094444 68 150 0.0 0.0 0.00 0.00 0.00 97 1019.5
20260507093941 69 154 0.0 0.0 0.00 0.00 0.00 97 1019.7
20260507093438 69 172 0.0 0.0 0.00 0.00 0.00 97 1019.6
20260507092937 69 160 0.0 0.0 0.00 0.00 0.00 97 1019.5
20260507092432 69 153 0.0 0.0 0.00 0.00 0.00 97 1019.5
20260507091930 68 151 0.0 0.0 0.00 0.00 0.00 97 1019.4
20260507091426 68 137 0.0 0.0 0.00 0.00 0.00 97 1019.7
20260507090922 69 159 0.0 0.0 0.00 0.00 0.00 97 1019.5
20260507090418 68 164 0.0 0.0 0.00 0.00 0.00 97 1019.5
20260507085915 68 152 0.0 0.0 0.00 0.00 0.00 97 1019.8
20260507085412 68 139 0.0 0.0 0.00 0.00 0.00 97 1019.5
20260507084909 68 140 0.0 0.0 0.00 0.00 0.00 97 1019.7
20260507084406 68 176 0.0 0.0 0.00 0.00 0.00 97 1019.7
20260507083903 67 144 0.0 0.0 0.00 0.00 0.00 97 1019.6
20260507083359 68 150 0.0 0.0 0.00 0.00 0.00 97 1019.5
20260507082855 68 160 0.0 0.0 0.00 0.00 0.00 97 1019.4
20260507082351 68 163 0.0 0.0 0.00 0.00 0.00 97 1019.3
20260507081849 68 134 0.0 0.0 0.00 0.00 0.00 97 1019.3
20260507081345 68 144 0.0 0.0 0.00 0.00 0.00 97 1019.6
20260507080842 68 158 0.0 0.0 0.00 0.00 0.00 97 1019.4
20260507080338 68 155 0.0 0.0 0.00 0.00 0.00 97 1019.4
20260507075833 68 147 0.0 0.0 0.00 0.00 0.00 97 1019.4
20260507075329 68 146 0.0 0.0 0.00 0.00 0.00 97 1019.4
20260507074826 68 153 0.0 0.0 0.00 0.00 0.00 97 1019.5
20260507074323 68 148 0.0 0.0 0.00 0.00 0.00 97 1019.5
20260507073821 68 160 0.0 0.0 0.00 0.00 0.00 97 1019.5
20260507073317 68 160 0.0 0.0 0.00 0.00 0.00 97 1019.6
20260507072814 68 144 0.0 0.0 0.00 0.00 0.00 96 1019.4
20260507072312 68 148 0.0 0.0 0.00 0.00 0.00 96 1019.7
20260507071809 68 159 0.0 0.0 0.00 0.00 0.00 96 1019.5
20260507071306 69 159 0.0 0.0 0.00 0.00 0.00 96 1019.5
20260507070802 68 139 0.0 0.0 0.00 0.00 0.00 96 1019.8
20260507070300 69 157 0.0 0.0 0.00 0.00 0.00 96 1019.8
20260507065756 69 150 0.0 0.0 0.00 0.00 0.00 96 1019.9
20260507065253 68 156 0.0 0.0 0.00 0.00 0.00 96 1019.9
20260507064750 69 161 0.0 0.0 0.00 0.00 0.00 96 1019.9
20260507064249 69 140 0.0 0.0 0.00 0.00 0.00 96 1019.9
20260507063746 69 145 0.0 0.0 0.00 0.00 0.00 96 1019.9
20260507063243 69 162 0.0 0.0 0.00 0.00 0.00 96 1020.0
20260507062740 69 158 0.0 0.0 0.00 0.00 0.00 96 1020.1
20260507062237 69 156 0.0 0.0 0.00 0.00 0.00 96 1020.2
20260507061735 69 152 0.0 0.0 0.00 0.00 0.00 96 1020.2
20260507061232 68 144 0.0 0.0 0.00 0.00 0.00 96 1020.1
20260507060731 68 138 0.0 0.0 0.00 0.00 0.00 96 1020.4
20260507060227 68 149 0.0 0.0 0.00 0.00 0.00 96 1020.3
20260507055723 69 164 0.0 0.0 0.00 0.00 0.00 96 1020.4
20260507055219 69 191 0.0 0.0 0.00 0.00 0.00 96 1020.8
20260507054715 68 152 0.0 0.0 0.00 0.00 0.00 96 1020.5
20260507054212 69 148 0.0 0.0 0.00 0.00 0.00 96 1020.8
20260507053709 69 144 0.0 0.0 0.00 0.00 0.00 96 1020.8
20260507053207 69 155 0.0 0.0 0.00 0.00 0.00 96 1020.7
20260507052706 69 156 0.0 0.0 0.00 0.00 0.00 96 1020.9
20260507052201 69 154 0.0 0.0 0.00 0.00 0.00 96 1021.0
20260507051700 69 149 0.0 0.0 0.00 0.00 0.00 96 1021.1
20260507051156 69 150 0.0 0.0 0.00 0.00 0.00 96 1021.0
20260507050653 69 148 0.0 0.0 0.00 0.00 0.00 96 1021.3
20260507050150 69 153 0.0 0.0 0.00 0.00 0.00 96 1021.2
20260507045646 69 131 0.0 0.0 0.00 0.00 0.00 96 1021.3
20260507045143 69 136 0.0 0.0 0.00 0.00 0.00 96 1021.4
20260507044640 69 143 0.0 0.0 0.00 0.00 0.00 96 1021.5
20260507044137 70 144 0.0 0.0 0.00 0.00 0.00 96 1021.5
20260507043633 69 135 0.0 0.0 0.00 0.00 0.00 96 1021.5
20260507043130 69 134 0.0 0.0 0.00 0.00 0.00 95 1021.5
20260507042626 70 146 0.0 0.0 0.00 0.00 0.00 96 1021.6
20260507042121 70 151 0.0 0.0 0.00 0.00 0.00 96 1021.5
20260507041618 70 150 0.0 0.0 0.00 0.00 0.00 96 1021.9
20260507041115 70 145 0.0 0.0 0.00 0.00 0.00 96 1021.9
20260507040612 70 146 0.0 0.0 0.00 0.00 0.00 95 1021.9
20260507040109 70 144 0.0 0.0 0.00 0.00 0.00 95 1021.7
20260507035604 70 148 0.0 0.0 0.00 0.00 0.00 95 1022.0
20260507035101 71 145 0.0 0.0 0.00 0.00 0.00 95 1021.9
20260507034558 71 132 0.0 0.0 0.00 0.00 0.00 95 1022.2
20260507034055 71 153 0.0 0.0 0.00 0.00 0.00 95 1022.2
20260507033553 71 153 0.0 0.0 0.00 0.00 0.00 95 1022.1
20260507033050 71 144 0.0 0.0 0.00 0.00 0.00 95 1021.9
20260507032547 71 138 0.0 0.0 0.00 0.00 0.00 95 1022.0
20260507032044 71 150 0.0 0.0 0.00 0.00 0.00 95 1022.0
20260507031540 71 134 0.0 0.0 0.00 0.00 0.00 95 1022.2
20260507031037 71 146 0.0 0.0 0.00 0.00 0.00 95 1022.1
20260507030534 71 136 0.0 0.0 0.00 0.00 0.00 95 1021.9
20260507030032 71 146 0.0 0.0 0.00 0.00 0.00 95 1022.1
20260507025528 72 135 0.0 0.0 0.00 0.00 0.00 95 1022.2
20260507025026 71 137 0.0 0.0 0.00 0.00 0.00 95 1022.1
20260507024524 72 152 0.0 0.0 0.00 0.00 0.00 94 1022.4
20260507024020 72 148 0.0 0.0 0.00 0.00 0.00 94 1022.0
20260507023516 72 144 0.0 0.0 0.00 0.00 0.00 94 1022.2
20260507023014 72 148 0.0 0.0 0.00 0.00 0.00 94 1022.2
20260507022510 72 154 0.0 0.0 0.00 0.00 0.00 94 1022.1
20260507022006 72 152 0.0 0.0 0.00 0.00 0.00 94 1022.1
20260507021502 72 147 0.0 0.0 0.00 0.00 0.00 94 1022.0
20260507020959 72 146 0.0 0.0 0.00 0.00 0.00 94 1021.9
20260507020456 73 144 0.0 0.0 0.00 0.00 0.00 94 1022.1
20260507015953 73 153 0.0 0.0 0.00 0.00 0.00 94 1021.9
20260507015451 73 154 0.0 0.0 0.00 0.00 0.00 94 1021.7
20260507014948 73 97 0.0 0.0 0.00 0.00 0.00 94 1022.0
20260507014444 73 149 0.0 0.0 0.00 0.00 0.00 94 1021.9
20260507013940 73 155 0.0 0.0 0.00 0.00 0.00 94 1021.9
20260507013437 73 156 0.0 0.0 0.00 0.00 0.00 94 1021.7
20260507012935 73 148 0.0 0.0 0.00 0.00 0.00 94 1021.9
20260507012432 74 138 0.0 0.0 0.00 0.00 0.00 94 1021.9
20260507011928 73 154 0.0 0.0 0.00 0.00 0.00 94 1021.6
20260507011426 73 134 0.0 0.0 0.00 0.00 0.00 93 1021.4
20260507010925 73 151 0.0 0.0 0.00 0.00 0.00 93 1021.5
20260507010421 73 127 0.0 0.0 0.00 0.00 0.00 93 1021.4
20260507005918 74 150 0.0 0.0 0.00 0.00 0.00 93 1021.3
20260507005415 74 154 0.0 0.0 0.00 0.00 0.00 93 1021.3
20260507004911 74 133 0.0 0.0 0.00 0.00 0.00 93 1021.4
20260507004408 74 155 0.0 0.0 0.00 0.00 0.00 93 1021.6
20260507003906 74 145 0.0 0.0 0.00 0.00 0.00 93 1021.3
20260507003401 74 151 0.0 0.0 0.00 0.00 0.00 92 1021.4
20260507002856 74 147 0.0 0.0 0.00 0.00 0.00 92 1021.4
20260507002353 74 148 0.0 0.0 0.00 0.00 0.00 92 1021.2
20260507001850 74 141 0.0 0.0 0.00 0.00 0.00 92 1021.0
20260507001347 74 153 0.0 0.0 0.00 0.00 0.00 92 1021.3
20260507000843 75 151 0.0 0.0 0.00 0.00 0.00 92 1021.0
20260507000339 75 149 0.0 0.0 0.00 0.00 0.00 92 1021.0
20260506235835 75 153 0.0 0.0 0.00 0.00 0.00 92 1020.9
20260506235332 75 151 0.0 0.0 0.00 0.00 0.00 92 1021.0
20260506234828 75 156 0.0 0.0 0.00 0.00 0.00 91 1020.9
20260506234326 75 143 0.0 0.0 0.00 0.00 0.00 91 1021.0
20260506233824 76 155 0.0 0.0 0.00 0.00 0.00 91 1020.8
20260506233319 76 155 0.0 0.0 0.00 0.00 0.00 90 1020.9
20260506232816 76 140 0.0 0.0 0.00 0.00 0.00 90 1020.7
20260506232311 77 150 0.0 0.0 0.00 0.00 0.00 89 1020.7
20260506231809 77 144 0.0 0.0 0.00 0.00 0.00 89 1020.6
20260506231307 77 156 0.0 0.0 0.00 0.00 0.00 89 1020.4
20260506230804 77 156 0.0 0.0 0.00 0.00 0.00 88 1020.5
20260506230300 78 149 0.0 0.0 0.00 0.00 0.00 87 1020.2
20260506225757 79 145 0.0 0.0 0.00 0.00 0.00 87 1020.1
20260506225254 79 157 0.0 0.9 0.00 0.00 0.00 87 1020.1
20260506224750 79 159 0.0 0.9 0.00 0.00 0.00 87 1019.9
20260506224248 79 180 0.0 0.9 0.00 0.00 0.00 87 1019.9
20260506223744 80 163 0.0 0.9 0.00 0.00 0.00 86 1019.9
20260506223240 80 311 0.9 1.7 0.00 0.00 0.00 85 1020.0
20260506222737 80 237 1.7 1.7 0.00 0.00 0.00 85 1019.8
20260506222232 81 218 1.7 1.7 0.00 0.00 0.00 84 1019.6
20260506221731 80 224 1.7 2.6 0.00 0.00 0.00 84 1020.0
20260506221228 81 172 0.0 0.9 0.00 0.00 0.00 83 1019.8
20260506220725 81 187 1.7 2.6 0.00 0.00 0.00 83 1019.8
20260506220220 81 198 0.9 1.7 0.00 0.00 0.00 82 1019.8
20260506215717 82 224 1.7 1.7 0.00 0.00 0.00 80 1019.7
20260506215212 82 224 0.9 1.7 0.00 0.00 0.00 79 1019.5
20260506214709 84 219 2.6 5.2 0.00 0.00 0.00 76 1019.5
20260506214207 84 171 0.0 2.6 0.00 0.00 0.00 76 1019.7